Year,Month,Day,Hour,Minute,Value (Times are PST for temperature in C)
2008,05,30,00,00,9.80
2008,05,30,00,01,9.80
2008,05,30,00,02,9.80
2008,05,30,00,03,9.80
2008,05,30,00,04,9.80
2008,05,30,00,05,9.80
2008,05,30,00,06,9.80
2008,05,30,00,07,9.80
2008,05,30,00,08,9.80
2008,05,30,00,09,9.80
2008,05,30,00,10,9.80
2008,05,30,00,11,9.80
2008,05,30,00,12,9.80
2008,05,30,01,02,9.60
2008,05,30,01,03,9.60
2008,05,30,01,04,9.60
2008,05,30,01,05,9.60
2008,05,30,01,06,9.60
2008,05,30,01,07,9.60
2008,05,30,01,08,9.60
2008,05,30,01,09,9.60
2008,05,30,01,10,9.60
2008,05,30,01,11,9.60
2008,05,30,01,12,9.60
2008,05,30,01,13,9.60
2008,05,30,01,14,9.60
2008,05,30,01,15,9.60
2008,05,30,01,16,9.50
2008,05,30,01,17,9.50
2008,05,30,01,18,9.40
2008,05,30,01,19,9.40
2008,05,30,01,20,9.30
2008,05,30,01,21,9.30
2008,05,30,01,22,9.30
2008,05,30,01,23,9.20
2008,05,30,01,24,9.20
2008,05,30,01,25,9.20
2008,05,30,01,26,9.20
2008,05,30,01,27,9.10
2008,05,30,01,28,9.10
2008,05,30,01,29,9.10
2008,05,30,01,30,9.00
2008,05,30,01,31,9.00
2008,05,30,01,32,8.90
2008,05,30,01,33,8.90
2008,05,30,01,34,8.80
2008,05,30,01,35,8.80
2008,05,30,01,36,8.70
2008,05,30,01,37,8.70
2008,05,30,01,38,8.70
2008,05,30,01,39,8.60
2008,05,30,01,40,8.60
2008,05,30,01,41,8.60
2008,05,30,01,42,8.50
2008,05,30,01,43,8.50
2008,05,30,01,44,8.50
2008,05,30,01,45,8.50
2008,05,30,01,46,8.40
2008,05,30,01,47,8.40
2008,05,30,01,48,8.40
2008,05,30,01,49,8.40
2008,05,30,01,50,8.40
2008,05,30,01,51,8.40
2008,05,30,01,52,8.50
2008,05,30,01,53,8.50
2008,05,30,01,54,8.50
2008,05,30,01,55,8.50
2008,05,30,01,56,8.50
2008,05,30,01,57,8.50
2008,05,30,01,58,8.60
2008,05,30,01,59,8.60
2008,05,30,02,00,8.60
2008,05,30,02,01,8.60
2008,05,30,02,02,8.60
2008,05,30,02,03,8.60
2008,05,30,02,04,8.60
2008,05,30,02,05,8.60
2008,05,30,02,06,8.50
2008,05,30,02,07,8.50
2008,05,30,02,08,8.50
2008,05,30,02,09,8.50
2008,05,30,02,10,8.50
2008,05,30,02,11,8.40
2008,05,30,02,12,8.40
2008,05,30,02,13,8.40
2008,05,30,02,14,8.40
2008,05,30,02,15,8.40
2008,05,30,02,16,8.40
2008,05,30,02,17,8.30
2008,05,30,02,18,8.30
2008,05,30,02,19,8.30
2008,05,30,02,20,8.30
2008,05,30,02,21,8.30
2008,05,30,02,22,8.40
2008,05,30,02,23,8.40
2008,05,30,02,24,8.40
2008,05,30,02,25,8.40
2008,05,30,02,26,8.50
2008,05,30,02,27,8.50
2008,05,30,02,28,8.50
2008,05,30,02,29,8.60
2008,05,30,02,30,8.60
2008,05,30,02,31,8.60
2008,05,30,02,32,8.60
2008,05,30,02,33,8.60
2008,05,30,02,34,8.60
2008,05,30,02,35,8.60
2008,05,30,02,36,8.60
2008,05,30,02,37,8.60
2008,05,30,02,38,8.60
2008,05,30,02,39,8.60
2008,05,30,02,40,8.60
2008,05,30,02,41,8.60
2008,05,30,02,42,8.60
2008,05,30,02,43,8.60
2008,05,30,02,44,8.60
2008,05,30,02,45,8.70
2008,05,30,02,46,8.70
2008,05,30,02,47,8.70
2008,05,30,02,48,8.70
2008,05,30,02,49,8.70
2008,05,30,02,50,8.70
2008,05,30,02,51,8.70
2008,05,30,02,52,8.70
2008,05,30,02,53,8.70
2008,05,30,02,54,8.70
2008,05,30,02,55,8.80
2008,05,30,02,56,8.80
2008,05,30,02,57,8.80
2008,05,30,02,58,8.80
2008,05,30,02,59,8.80
2008,05,30,03,00,8.80
2008,05,30,03,01,8.80
2008,05,30,03,02,8.80
2008,05,30,03,03,8.80
2008,05,30,03,04,8.80
2008,05,30,03,05,8.80
2008,05,30,03,06,8.80
2008,05,30,03,07,8.80
2008,05,30,03,08,8.80
2008,05,30,03,09,8.80
2008,05,30,03,10,8.70
2008,05,30,03,11,8.70
2008,05,30,03,12,8.70
2008,05,30,03,13,8.80
2008,05,30,03,14,8.80
2008,05,30,03,15,8.80
2008,05,30,03,16,8.80
2008,05,30,03,17,8.80
2008,05,30,03,18,8.80
2008,05,30,03,19,8.80
2008,05,30,03,20,8.80
2008,05,30,03,21,8.70
2008,05,30,03,22,8.70
2008,05,30,03,23,8.70
2008,05,30,03,24,8.80
2008,05,30,03,25,8.80
2008,05,30,03,26,8.80
2008,05,30,03,27,8.70
2008,05,30,03,28,8.70
2008,05,30,03,29,8.70
2008,05,30,03,30,8.70
2008,05,30,03,31,8.70
2008,05,30,03,32,8.70
2008,05,30,03,33,8.70
2008,05,30,03,34,8.70
2008,05,30,03,35,8.70
2008,05,30,03,36,8.70
2008,05,30,03,37,8.70
2008,05,30,03,38,8.70
2008,05,30,03,39,8.70
2008,05,30,03,40,8.70
2008,05,30,03,41,8.70
2008,05,30,03,42,8.70
2008,05,30,03,43,8.70
2008,05,30,03,44,8.70
2008,05,30,03,45,8.70
2008,05,30,03,46,8.70
2008,05,30,03,47,8.70
2008,05,30,03,48,8.70
2008,05,30,03,49,8.70
2008,05,30,03,50,8.70
2008,05,30,03,51,8.70
2008,05,30,03,52,8.70
2008,05,30,03,53,8.70
2008,05,30,03,54,8.70
2008,05,30,03,55,8.70
2008,05,30,03,56,8.70
2008,05,30,03,57,8.70
2008,05,30,03,58,8.70
2008,05,30,03,59,8.70
2008,05,30,04,00,8.70
2008,05,30,04,01,8.70
2008,05,30,04,02,8.70
2008,05,30,04,03,8.70
2008,05,30,04,04,8.70
2008,05,30,04,05,8.70
2008,05,30,04,06,8.70
2008,05,30,04,07,8.70
2008,05,30,04,08,8.70
2008,05,30,04,09,8.70
2008,05,30,04,10,8.70
2008,05,30,04,11,8.70
2008,05,30,04,12,8.70
2008,05,30,04,13,8.70
2008,05,30,04,14,8.60
2008,05,30,04,15,8.60
2008,05,30,04,16,8.60
2008,05,30,04,17,8.60
2008,05,30,04,18,8.70
2008,05,30,04,19,8.70
2008,05,30,04,20,8.70
2008,05,30,04,21,8.70
2008,05,30,04,22,8.70
2008,05,30,04,23,8.70
2008,05,30,04,24,8.60
2008,05,30,04,25,8.60
2008,05,30,04,26,8.60
2008,05,30,04,27,8.60
2008,05,30,04,28,8.60
2008,05,30,04,29,8.60
2008,05,30,04,30,8.60
2008,05,30,04,31,8.60
2008,05,30,04,32,8.60
2008,05,30,04,33,8.60
2008,05,30,04,34,8.70
2008,05,30,04,35,8.70
2008,05,30,04,36,8.70
2008,05,30,04,37,8.70
2008,05,30,04,38,8.70
2008,05,30,04,39,8.70
2008,05,30,04,40,8.70
2008,05,30,04,41,8.70
2008,05,30,04,42,8.70
2008,05,30,04,43,8.70
2008,05,30,04,44,8.70
2008,05,30,04,45,8.70
2008,05,30,04,46,8.70
2008,05,30,04,47,8.70
2008,05,30,04,48,8.70
2008,05,30,04,49,8.70
2008,05,30,04,50,8.70
2008,05,30,04,51,8.70
2008,05,30,04,52,8.70
2008,05,30,04,53,8.70
2008,05,30,04,54,8.70
2008,05,30,04,55,8.70
2008,05,30,04,56,8.70
2008,05,30,04,57,8.70
2008,05,30,04,58,8.70
2008,05,30,04,59,8.70
2008,05,30,05,00,8.70
2008,05,30,05,01,8.70
2008,05,30,05,02,8.70
2008,05,30,05,03,8.70
2008,05,30,05,04,8.70
2008,05,30,05,05,8.70
2008,05,30,05,06,8.70
2008,05,30,05,07,8.70
2008,05,30,05,08,8.60
2008,05,30,05,09,8.60
2008,05,30,05,10,8.60
2008,05,30,05,11,8.60
2008,05,30,05,12,8.60
2008,05,30,05,13,8.60
2008,05,30,05,14,8.60
2008,05,30,05,15,8.50
2008,05,30,05,16,8.50
2008,05,30,05,17,8.50
2008,05,30,05,18,8.50
2008,05,30,05,19,8.50
2008,05,30,05,20,8.50
2008,05,30,05,21,8.50
2008,05,30,05,22,8.50
2008,05,30,05,23,8.40
2008,05,30,05,24,8.40
2008,05,30,05,25,8.40
2008,05,30,05,26,8.40
2008,05,30,05,27,8.40
2008,05,30,05,28,8.40
2008,05,30,05,29,8.40
2008,05,30,05,30,8.40
2008,05,30,05,31,8.40
2008,05,30,05,32,8.40
2008,05,30,05,33,8.40
2008,05,30,05,34,8.40
2008,05,30,05,35,8.40
2008,05,30,05,36,8.40
2008,05,30,05,37,8.40
2008,05,30,05,38,8.40
2008,05,30,05,39,8.40
2008,05,30,05,40,8.40
2008,05,30,05,41,8.40
2008,05,30,05,42,8.40
2008,05,30,05,43,8.40
2008,05,30,05,44,8.40
2008,05,30,05,45,8.40
2008,05,30,05,46,8.40
2008,05,30,05,47,8.40
2008,05,30,05,48,8.40
2008,05,30,05,49,8.40
2008,05,30,05,50,8.50
2008,05,30,05,51,8.50
2008,05,30,05,52,8.50
2008,05,30,05,53,8.50
2008,05,30,05,54,8.50
2008,05,30,05,55,8.50
2008,05,30,05,56,8.60
2008,05,30,05,57,8.60
2008,05,30,05,58,8.60
2008,05,30,05,59,8.60
2008,05,30,06,00,8.60
2008,05,30,06,01,8.60
2008,05,30,06,02,8.60
2008,05,30,06,03,8.70
2008,05,30,06,04,8.70
2008,05,30,06,05,8.70
2008,05,30,06,06,8.70
2008,05,30,06,07,8.70
2008,05,30,06,08,8.80
2008,05,30,06,09,8.80
2008,05,30,06,10,8.80
2008,05,30,06,11,8.80
2008,05,30,06,12,8.80
2008,05,30,06,13,8.80
2008,05,30,06,14,8.80
2008,05,30,06,15,8.80
2008,05,30,06,16,8.90
2008,05,30,06,17,8.90
2008,05,30,06,18,8.90
2008,05,30,06,19,8.90
2008,05,30,06,20,8.90
2008,05,30,06,21,8.90
2008,05,30,06,22,9.00
2008,05,30,06,23,9.00
2008,05,30,06,24,9.00
2008,05,30,06,25,9.10
2008,05,30,06,26,9.10
2008,05,30,06,27,9.10
2008,05,30,06,28,9.10
2008,05,30,06,29,9.10
2008,05,30,06,30,9.10
2008,05,30,06,31,9.20
2008,05,30,06,32,9.20
2008,05,30,06,33,9.20
2008,05,30,06,34,9.20
2008,05,30,06,35,9.30
2008,05,30,06,36,9.30
2008,05,30,06,37,9.30
2008,05,30,06,38,9.30
2008,05,30,06,39,9.40
2008,05,30,06,40,9.40
2008,05,30,06,41,9.40
2008,05,30,06,42,9.40
2008,05,30,06,43,9.40
2008,05,30,06,44,9.50
2008,05,30,06,45,9.60
2008,05,30,06,46,9.60
2008,05,30,06,47,9.60
2008,05,30,06,48,9.60
2008,05,30,06,49,9.70
2008,05,30,06,50,9.70
2008,05,30,06,51,9.70
2008,05,30,06,52,9.70
2008,05,30,06,53,9.80
2008,05,30,06,54,9.80
2008,05,30,06,55,9.80
2008,05,30,06,56,9.80
2008,05,30,06,57,9.90
2008,05,30,06,58,9.90
2008,05,30,06,59,10.00
2008,05,30,07,00,10.00
2008,05,30,07,01,10.10
2008,05,30,07,02,10.10
2008,05,30,07,03,10.20
2008,05,30,07,04,10.20
2008,05,30,07,05,10.30
2008,05,30,07,06,10.30
2008,05,30,07,07,10.40
2008,05,30,07,08,10.40
2008,05,30,07,09,10.50
2008,05,30,07,10,10.60
2008,05,30,07,11,10.60
2008,05,30,07,12,10.70
2008,05,30,07,13,10.80
2008,05,30,07,14,10.80
2008,05,30,07,15,10.90
2008,05,30,07,16,11.00
2008,05,30,07,17,11.00
2008,05,30,07,18,11.10
2008,05,30,07,19,11.10
2008,05,30,07,20,11.20
2008,05,30,07,21,11.20
2008,05,30,07,22,11.30
2008,05,30,07,23,11.30
2008,05,30,07,24,11.30
2008,05,30,07,25,11.30
2008,05,30,07,26,11.30
2008,05,30,07,27,11.40
2008,05,30,07,28,11.40
2008,05,30,07,29,11.40
2008,05,30,07,30,11.40
2008,05,30,07,31,11.40
2008,05,30,07,32,11.50
2008,05,30,07,33,11.50
2008,05,30,07,34,11.60
2008,05,30,07,35,11.60
2008,05,30,07,36,11.70
2008,05,30,07,37,11.70
2008,05,30,07,38,11.80
2008,05,30,07,39,11.80
2008,05,30,07,40,11.80
2008,05,30,07,41,11.80
2008,05,30,07,42,11.80
2008,05,30,07,43,11.80
2008,05,30,07,44,11.80
2008,05,30,07,45,11.80
2008,05,30,07,46,11.80
2008,05,30,07,47,11.80
2008,05,30,07,48,11.90
2008,05,30,07,49,11.90
2008,05,30,07,50,11.90
2008,05,30,07,51,12.00
2008,05,30,07,52,12.00
2008,05,30,07,53,12.10
2008,05,30,07,54,12.10
2008,05,30,07,55,12.10
2008,05,30,07,56,12.20
2008,05,30,07,57,12.20
2008,05,30,07,58,12.20
2008,05,30,07,59,12.30
2008,05,30,08,00,12.30
2008,05,30,08,01,12.30
2008,05,30,08,02,12.30
2008,05,30,08,03,12.30
2008,05,30,08,04,12.30
2008,05,30,08,05,12.30
2008,05,30,08,06,12.30
2008,05,30,08,07,12.40
2008,05,30,08,08,12.30
2008,05,30,08,09,12.30
2008,05,30,08,10,12.30
2008,05,30,08,11,12.20
2008,05,30,08,12,12.20
2008,05,30,08,13,12.20
2008,05,30,08,14,12.10
2008,05,30,08,15,12.10
2008,05,30,08,16,12.10
2008,05,30,08,17,12.10
2008,05,30,08,18,12.10
2008,05,30,08,19,12.10
2008,05,30,08,20,12.00
2008,05,30,08,21,12.00
2008,05,30,08,22,12.00
2008,05,30,08,23,12.00
2008,05,30,08,24,12.00
2008,05,30,08,25,12.00
2008,05,30,08,26,12.00
2008,05,30,08,27,12.00
2008,05,30,08,28,12.10
2008,05,30,08,29,12.10
2008,05,30,08,30,12.10
2008,05,30,08,31,12.10
2008,05,30,08,32,12.10
2008,05,30,08,33,12.20
2008,05,30,08,34,12.20
2008,05,30,08,35,12.20
2008,05,30,08,36,12.30
2008,05,30,08,37,12.30
2008,05,30,08,38,12.30
2008,05,30,08,39,12.40
2008,05,30,08,40,12.40
2008,05,30,08,41,12.40
2008,05,30,08,42,12.50
2008,05,30,08,43,12.50
2008,05,30,08,44,12.60
2008,05,30,08,45,12.50
2008,05,30,08,46,12.60
2008,05,30,08,47,12.60
2008,05,30,08,48,12.60
2008,05,30,08,49,12.60
2008,05,30,08,50,12.70
2008,05,30,08,51,12.70
2008,05,30,08,52,12.70
2008,05,30,08,53,12.70
2008,05,30,08,54,12.70
2008,05,30,08,55,12.80
2008,05,30,08,56,12.80
2008,05,30,08,57,12.70
2008,05,30,08,58,12.70
2008,05,30,08,59,12.70
2008,05,30,09,00,12.70
2008,05,30,09,01,12.70
2008,05,30,09,02,12.70
2008,05,30,09,03,12.70
2008,05,30,09,04,12.70
2008,05,30,09,05,12.70
2008,05,30,09,06,12.70
2008,05,30,09,07,12.60
2008,05,30,09,08,12.60
2008,05,30,09,09,12.60
2008,05,30,09,10,12.60
2008,05,30,09,11,12.60
2008,05,30,09,12,12.60
2008,05,30,09,13,12.60
2008,05,30,09,14,12.60
2008,05,30,09,15,12.60
2008,05,30,09,16,12.60
2008,05,30,09,17,12.60
2008,05,30,09,18,12.50
2008,05,30,09,19,12.50
2008,05,30,09,20,12.40
2008,05,30,09,21,12.40
2008,05,30,09,22,12.30
2008,05,30,09,23,12.30
2008,05,30,09,24,12.30
2008,05,30,09,25,12.30
2008,05,30,09,26,12.30
2008,05,30,09,27,12.40
2008,05,30,09,28,12.40
2008,05,30,09,29,12.30
2008,05,30,09,30,12.30
2008,05,30,09,31,12.40
2008,05,30,09,32,12.40
2008,05,30,09,33,12.40
2008,05,30,09,34,12.50
2008,05,30,09,35,12.60
2008,05,30,09,36,12.60
2008,05,30,09,37,12.60
2008,05,30,09,38,12.60
2008,05,30,09,39,12.60
2008,05,30,09,40,12.60
2008,05,30,09,41,12.60
2008,05,30,09,42,12.70
2008,05,30,09,43,12.70
2008,05,30,09,44,12.70
2008,05,30,09,45,12.60
2008,05,30,09,46,12.50
2008,05,30,09,47,12.40
2008,05,30,09,48,12.40
2008,05,30,09,49,12.40
2008,05,30,09,50,12.40
2008,05,30,09,51,12.40
2008,05,30,09,52,12.40
2008,05,30,09,53,12.40
2008,05,30,09,54,12.40
2008,05,30,09,55,12.40
2008,05,30,09,56,12.40
2008,05,30,09,57,12.30
2008,05,30,09,58,12.30
2008,05,30,09,59,12.20
2008,05,30,10,00,12.20
2008,05,30,10,01,12.20
2008,05,30,10,02,12.20
2008,05,30,10,03,12.20
2008,05,30,10,04,12.20
2008,05,30,10,05,12.10
2008,05,30,10,06,12.10
2008,05,30,10,07,12.10
2008,05,30,10,08,12.10
2008,05,30,10,09,12.10
2008,05,30,10,10,12.20
2008,05,30,10,11,12.30
2008,05,30,10,12,12.30
2008,05,30,10,13,12.30
2008,05,30,10,14,12.30
2008,05,30,10,15,12.30
2008,05,30,10,16,12.40
2008,05,30,10,17,12.40
2008,05,30,10,18,12.40
2008,05,30,10,19,12.40
2008,05,30,10,20,12.30
2008,05,30,10,21,12.30
2008,05,30,10,22,12.30
2008,05,30,10,23,12.30
2008,05,30,10,24,12.40
2008,05,30,10,25,12.40
2008,05,30,10,26,12.30
2008,05,30,10,27,12.30
2008,05,30,10,28,12.30
2008,05,30,10,29,12.30
2008,05,30,10,30,12.30
2008,05,30,10,31,12.30
2008,05,30,10,32,12.30
2008,05,30,10,33,12.20
2008,05,30,10,34,12.10
2008,05,30,10,35,12.10
2008,05,30,10,36,12.00
2008,05,30,10,37,12.00
2008,05,30,10,38,12.00
2008,05,30,10,39,12.00
2008,05,30,10,40,12.10
2008,05,30,10,41,12.00
2008,05,30,10,42,12.00
2008,05,30,10,43,12.00
2008,05,30,10,44,11.90
2008,05,30,10,45,11.90
2008,05,30,10,46,12.00
2008,05,30,10,47,12.00
2008,05,30,10,48,12.10
2008,05,30,10,49,12.10
2008,05,30,10,50,12.30
2008,05,30,10,51,12.40
2008,05,30,10,52,12.60
2008,05,30,10,53,12.70
2008,05,30,10,54,12.70
2008,05,30,10,55,12.70
2008,05,30,10,56,12.60
2008,05,30,10,57,12.50
2008,05,30,10,58,12.50
2008,05,30,10,59,12.40
2008,05,30,11,00,12.30
2008,05,30,11,01,12.30
2008,05,30,11,02,12.40
2008,05,30,11,03,12.50
2008,05,30,11,04,12.60
2008,05,30,11,05,12.60
2008,05,30,11,06,12.60
2008,05,30,11,07,12.50
2008,05,30,11,08,12.50
2008,05,30,11,09,12.40
2008,05,30,11,10,12.30
2008,05,30,11,11,12.20
2008,05,30,11,12,12.20
2008,05,30,11,13,12.30
2008,05,30,11,14,12.30
2008,05,30,11,15,12.40
2008,05,30,11,16,12.60
2008,05,30,11,17,12.70
2008,05,30,11,18,12.80
2008,05,30,11,19,12.80
2008,05,30,11,20,12.80
2008,05,30,11,21,12.80
2008,05,30,11,22,12.70
2008,05,30,11,23,12.70
2008,05,30,11,24,12.70
2008,05,30,11,25,12.60
2008,05,30,11,26,12.60
2008,05,30,11,27,12.70
2008,05,30,11,28,12.70
2008,05,30,11,29,12.80
2008,05,30,11,30,12.90
2008,05,30,11,31,12.90
2008,05,30,11,32,12.90
2008,05,30,11,33,13.00
2008,05,30,11,34,13.00
2008,05,30,11,35,13.00
2008,05,30,11,36,13.00
2008,05,30,11,37,13.10
2008,05,30,11,38,13.20
2008,05,30,11,39,13.30
2008,05,30,11,40,13.40
2008,05,30,11,41,13.40
2008,05,30,11,42,13.30
2008,05,30,11,43,13.30
2008,05,30,11,44,13.20
2008,05,30,11,45,13.20
2008,05,30,11,46,13.10
2008,05,30,11,47,13.00
2008,05,30,11,48,12.90
2008,05,30,11,49,12.80
2008,05,30,11,50,12.80
2008,05,30,11,51,12.80
2008,05,30,11,52,12.90
2008,05,30,11,53,12.90
2008,05,30,11,54,12.90
2008,05,30,11,55,12.90
2008,05,30,11,56,12.90
2008,05,30,11,57,12.90
2008,05,30,11,58,12.80
2008,05,30,11,59,12.80
2008,05,30,12,00,12.80
2008,05,30,12,01,12.90
2008,05,30,12,02,13.00
2008,05,30,12,03,13.20
2008,05,30,12,04,13.20
2008,05,30,12,05,13.30
2008,05,30,12,06,13.30
2008,05,30,12,07,13.40
2008,05,30,12,08,13.40
2008,05,30,12,09,13.40
2008,05,30,12,10,13.30
2008,05,30,12,11,13.20
2008,05,30,12,12,13.10
2008,05,30,12,13,13.10
2008,05,30,12,14,13.10
2008,05,30,12,15,13.10
2008,05,30,12,16,13.10
2008,05,30,12,17,13.00
2008,05,30,12,18,12.90
2008,05,30,12,19,12.90
2008,05,30,12,20,12.80
2008,05,30,12,21,12.80
2008,05,30,12,22,12.80
2008,05,30,12,23,12.80
2008,05,30,12,24,12.80
2008,05,30,12,25,12.80
2008,05,30,12,26,12.80
2008,05,30,12,27,12.90
2008,05,30,12,28,13.00
2008,05,30,12,29,13.00
2008,05,30,12,30,13.10
2008,05,30,12,31,13.20
2008,05,30,12,32,13.20
2008,05,30,12,33,13.20
2008,05,30,12,34,13.30
2008,05,30,12,35,13.40
2008,05,30,12,36,13.40
2008,05,30,12,37,13.40
2008,05,30,12,38,13.30
2008,05,30,12,39,13.20
2008,05,30,12,40,13.20
2008,05,30,12,41,13.20
2008,05,30,12,42,13.20
2008,05,30,12,43,13.20
2008,05,30,12,44,13.20
2008,05,30,12,45,13.30
2008,05,30,12,46,13.30
2008,05,30,12,47,13.40
2008,05,30,12,48,13.40
2008,05,30,12,49,13.50
2008,05,30,12,50,13.50
2008,05,30,12,51,13.50
2008,05,30,12,52,13.50
2008,05,30,12,53,13.60
2008,05,30,12,54,13.70
2008,05,30,12,55,13.70
2008,05,30,12,56,13.90
2008,05,30,12,57,13.90
2008,05,30,12,58,13.90
2008,05,30,12,59,13.90
2008,05,30,13,00,13.90
2008,05,30,13,01,14.00
2008,05,30,13,02,14.00
2008,05,30,13,03,14.00
2008,05,30,13,04,14.00
2008,05,30,13,05,14.20
2008,05,30,13,06,14.20
2008,05,30,13,07,14.30
2008,05,30,13,08,14.30
2008,05,30,13,09,14.50
2008,05,30,13,10,14.30
2008,05,30,13,11,14.30
2008,05,30,13,12,14.20
2008,05,30,13,13,14.00
2008,05,30,13,14,13.90
2008,05,30,13,15,13.80
2008,05,30,13,16,13.80
2008,05,30,13,17,13.80
2008,05,30,13,18,13.80
2008,05,30,13,19,13.80
2008,05,30,13,20,13.80
2008,05,30,13,21,13.70
2008,05,30,13,22,13.70
2008,05,30,13,23,13.70
2008,05,30,13,24,13.80
2008,05,30,13,25,13.80
2008,05,30,13,26,13.70
2008,05,30,13,27,13.70
2008,05,30,13,28,13.70
2008,05,30,13,29,13.60
2008,05,30,13,30,13.60
2008,05,30,13,31,13.60
2008,05,30,13,32,13.70
2008,05,30,13,33,13.70
2008,05,30,13,34,13.80
2008,05,30,13,35,14.00
2008,05,30,13,36,14.10
2008,05,30,13,37,14.10
2008,05,30,13,38,14.20
2008,05,30,13,39,14.10
2008,05,30,13,40,14.10
2008,05,30,13,41,14.10
2008,05,30,13,42,14.00
2008,05,30,13,43,13.90
2008,05,30,13,44,13.90
2008,05,30,13,45,13.90
2008,05,30,13,46,13.90
2008,05,30,13,47,13.90
2008,05,30,13,48,13.90
2008,05,30,13,49,13.90
2008,05,30,13,50,13.90
2008,05,30,13,51,13.80
2008,05,30,13,52,13.80
2008,05,30,13,53,13.70
2008,05,30,13,54,13.70
2008,05,30,13,55,13.70
2008,05,30,13,56,13.80
2008,05,30,13,57,13.80
2008,05,30,13,58,13.80
2008,05,30,13,59,13.80
2008,05,30,14,00,13.70
2008,05,30,14,01,13.80
2008,05,30,14,02,13.80
2008,05,30,14,03,13.80
2008,05,30,14,04,13.70
2008,05,30,14,05,13.70
2008,05,30,14,06,13.70
2008,05,30,14,07,13.60
2008,05,30,14,08,13.60
2008,05,30,14,09,13.70
2008,05,30,14,10,13.70
2008,05,30,14,11,13.70
2008,05,30,14,12,13.70
2008,05,30,14,13,13.70
2008,05,30,14,14,13.70
2008,05,30,14,15,13.70
2008,05,30,14,16,13.70
2008,05,30,14,17,13.80
2008,05,30,14,18,13.80
2008,05,30,14,19,13.80
2008,05,30,14,20,13.90
2008,05,30,14,21,13.90
2008,05,30,14,22,13.90
2008,05,30,14,23,13.80
2008,05,30,14,24,13.80
2008,05,30,14,25,13.80
2008,05,30,14,26,13.80
2008,05,30,14,27,13.90
2008,05,30,14,28,14.00
2008,05,30,14,29,14.00
2008,05,30,14,30,14.10
2008,05,30,14,31,14.10
2008,05,30,14,32,14.20
2008,05,30,14,33,14.30
2008,05,30,14,34,14.40
2008,05,30,14,35,14.40
2008,05,30,14,36,14.30
2008,05,30,14,37,14.20
2008,05,30,14,38,14.10
2008,05,30,14,39,14.10
2008,05,30,14,40,14.00
2008,05,30,14,41,13.90
2008,05,30,14,42,13.90
2008,05,30,14,43,13.80
2008,05,30,14,44,13.80
2008,05,30,14,45,13.80
2008,05,30,14,46,13.80
2008,05,30,14,47,13.80
2008,05,30,14,48,13.90
2008,05,30,14,49,13.90
2008,05,30,14,50,13.90
2008,05,30,14,51,14.00
2008,05,30,14,52,14.10
2008,05,30,14,53,14.20
2008,05,30,14,54,14.40
2008,05,30,14,55,14.50
2008,05,30,14,56,14.40
2008,05,30,14,57,14.40
2008,05,30,14,58,14.30
2008,05,30,14,59,14.30
2008,05,30,15,00,14.20
2008,05,30,15,01,14.20
2008,05,30,15,02,14.30
2008,05,30,15,03,14.30
2008,05,30,15,04,14.30
2008,05,30,15,05,14.30
2008,05,30,15,06,14.30
2008,05,30,15,07,14.40
2008,05,30,15,08,14.40
2008,05,30,15,09,14.40
2008,05,30,15,10,14.30
2008,05,30,15,11,14.40
2008,05,30,15,12,14.40
2008,05,30,15,13,14.40
2008,05,30,15,14,14.40
2008,05,30,15,15,14.30
2008,05,30,15,16,14.30
2008,05,30,15,17,14.30
2008,05,30,15,18,14.20
2008,05,30,15,19,14.30
2008,05,30,15,20,14.40
2008,05,30,15,21,14.50
2008,05,30,15,22,14.60
2008,05,30,15,23,14.70
2008,05,30,15,24,14.60
2008,05,30,15,25,14.70
2008,05,30,15,26,14.70
2008,05,30,15,27,14.70
2008,05,30,15,28,14.70
2008,05,30,15,29,14.70
2008,05,30,15,30,14.70
2008,05,30,15,31,14.60
2008,05,30,15,32,14.50
2008,05,30,15,33,14.50
2008,05,30,15,34,14.60
2008,05,30,15,35,14.50
2008,05,30,15,36,14.40
2008,05,30,15,37,14.50
2008,05,30,15,38,14.60
2008,05,30,15,39,14.70
2008,05,30,15,40,14.80
2008,05,30,15,41,14.80
2008,05,30,15,42,14.80
2008,05,30,15,43,14.70
2008,05,30,15,44,14.60
2008,05,30,15,45,14.60
2008,05,30,15,46,14.60
2008,05,30,15,47,14.60
2008,05,30,15,48,14.60
2008,05,30,15,49,14.50
2008,05,30,15,50,14.50
2008,05,30,15,51,14.60
2008,05,30,15,52,14.70
2008,05,30,15,53,14.90
2008,05,30,15,54,15.00
2008,05,30,15,55,15.00
2008,05,30,15,56,15.00
2008,05,30,15,57,15.00
2008,05,30,15,58,15.00
2008,05,30,15,59,14.90
2008,05,30,16,00,14.80
2008,05,30,16,01,14.80
2008,05,30,16,02,14.70
2008,05,30,16,03,14.70
2008,05,30,16,04,14.70
2008,05,30,16,05,14.80
2008,05,30,16,06,14.80
2008,05,30,16,07,14.80
2008,05,30,16,08,14.80
2008,05,30,16,09,15.00
2008,05,30,16,10,15.00
2008,05,30,16,11,15.00
2008,05,30,16,12,15.00
2008,05,30,16,13,15.00
2008,05,30,16,14,15.00
2008,05,30,16,15,15.00
2008,05,30,16,16,15.00
2008,05,30,16,17,15.00
2008,05,30,16,18,15.00
2008,05,30,16,19,15.00
2008,05,30,16,20,15.00
2008,05,30,16,21,15.00
2008,05,30,16,22,15.00
2008,05,30,16,23,15.00
2008,05,30,16,24,15.00
2008,05,30,16,25,15.00
2008,05,30,16,26,14.90
2008,05,30,16,27,14.90
2008,05,30,16,28,14.90
2008,05,30,16,29,14.90
2008,05,30,16,30,14.90
2008,05,30,16,31,14.90
2008,05,30,16,32,15.00
2008,05,30,16,33,15.00
2008,05,30,16,34,15.00
2008,05,30,16,35,15.00
2008,05,30,16,36,15.00
2008,05,30,16,37,14.90
2008,05,30,16,38,14.80
2008,05,30,16,39,14.80
2008,05,30,16,40,14.90
2008,05,30,16,41,15.00
2008,05,30,16,42,15.00
2008,05,30,16,43,15.00
2008,05,30,16,44,15.00
2008,05,30,16,45,15.00
2008,05,30,16,46,15.00
2008,05,30,16,47,15.00
2008,05,30,16,48,15.00
2008,05,30,16,49,15.00
2008,05,30,16,50,15.00
2008,05,30,16,51,15.00
2008,05,30,16,52,15.00
2008,05,30,16,53,15.00
2008,05,30,16,54,14.90
2008,05,30,16,55,14.90
2008,05,30,16,56,14.80
2008,05,30,16,57,14.80
2008,05,30,16,58,14.80
2008,05,30,16,59,14.70
2008,05,30,17,00,14.60
2008,05,30,17,01,14.60
2008,05,30,17,02,14.50
2008,05,30,17,03,14.60
2008,05,30,17,04,14.70
2008,05,30,17,05,14.80
2008,05,30,17,06,14.80
2008,05,30,17,07,14.80
2008,05,30,17,08,14.80
2008,05,30,17,09,14.80
2008,05,30,17,10,14.70
2008,05,30,17,11,14.70
2008,05,30,17,12,14.70
2008,05,30,17,13,14.80
2008,05,30,17,14,14.90
2008,05,30,17,15,15.00
2008,05,30,17,16,15.00
2008,05,30,17,17,15.00
2008,05,30,17,18,15.00
2008,05,30,17,19,15.00
2008,05,30,17,20,14.90
2008,05,30,17,21,14.90
2008,05,30,17,22,15.00
2008,05,30,17,23,15.00
2008,05,30,17,24,15.00
2008,05,30,17,25,15.00
2008,05,30,17,26,15.00
2008,05,30,17,27,15.00
2008,05,30,17,28,15.00
2008,05,30,17,29,15.00
2008,05,30,17,30,15.00
2008,05,30,17,31,15.00
2008,05,30,17,32,15.00
2008,05,30,17,33,15.00
2008,05,30,17,34,15.00
2008,05,30,17,35,15.00
2008,05,30,17,36,15.00
2008,05,30,17,37,15.00
2008,05,30,17,38,14.80
2008,05,30,17,39,14.70
2008,05,30,17,40,14.70
2008,05,30,17,41,14.60
2008,05,30,17,42,14.60
2008,05,30,17,43,14.50
2008,05,30,17,44,14.40
2008,05,30,17,45,14.40
2008,05,30,17,46,14.40
2008,05,30,17,47,14.40
2008,05,30,17,48,14.40
2008,05,30,17,49,14.40
2008,05,30,17,50,14.40
2008,05,30,17,51,14.40
2008,05,30,17,52,14.50
2008,05,30,17,53,14.60
2008,05,30,17,54,14.60
2008,05,30,17,55,14.60
2008,05,30,17,56,14.60
2008,05,30,17,57,14.60
2008,05,30,17,58,14.60
2008,05,30,17,59,14.60
2008,05,30,18,00,14.60
2008,05,30,18,01,14.60
2008,05,30,18,02,14.60
2008,05,30,18,03,14.70
2008,05,30,18,04,14.70
2008,05,30,18,05,14.70
2008,05,30,18,06,14.80
2008,05,30,18,07,14.80
2008,05,30,18,08,14.80
2008,05,30,18,09,14.90
2008,05,30,18,10,14.90
2008,05,30,18,11,14.90
2008,05,30,18,12,14.80
2008,05,30,18,13,14.80
2008,05,30,18,14,14.90
2008,05,30,18,15,14.90
2008,05,30,18,16,14.90
2008,05,30,18,17,14.80
2008,05,30,18,18,14.90
2008,05,30,18,19,14.90
2008,05,30,18,20,15.00
2008,05,30,18,21,15.00
2008,05,30,18,22,15.00
2008,05,30,18,23,15.00
2008,05,30,18,24,15.00